Hugo, OK

3:13 AM CDT on April 25, 2017 (GMT -0500)
Stamper Municipal

Weather History for KHHW - November, 2013

Change the Weather History Date:

Thursday, November 28, 2013

  Actual Average Record
Temperature  
Mean Temperature 40 °F -  
Max Temperature 54 °F 56 °F 69 °F (2016)
Min Temperature 27 °F 35 °F 27 °F (2013)
Degree Days  
Heating Degree Days 24    
Moisture  
Dew Point 26 °F    
Average Humidity 61    
Maximum Humidity 85    
Minimum Humidity 31    
Precipitation  
Precipitation 0.00 in - - ()
Sea Level Pressure  
Sea Level Pressure 30.40 in    
Wind  
Wind Speed 2 mph (SSE)    
Max Wind Speed 7 mph    
Max Gust Speed -    
Visibility 10 miles    
Events      
Averages and records for this station are not official NWS values.
T = Trace of Precipitation, MM = Missing Value Source: NWS Daily Summary

Daily Weather History Graph

Daily Weather History Graph

Search for Another Location

Airport or City:

Trip Planner

Search our weather history database for the weather conditions in past years. The results will help you decide how hot, cold, wet, or windy it might be!

Date:

Astronomy

Nov. 28, 2013 Rise Set
Actual Time 7:07 AM CST 5:13 PM CST
Civil Twilight 6:39 AM CST 5:40 PM CST
Nautical Twilight 6:09 AM CST 6:11 PM CST
Astronomical Twilight 5:38 AM CST 6:41 PM CST
Moon 2:22 AM CST (11/28) 2:12 PM CST (11/28)
Length of Visible Light 11h 00m
Length of Day
10h 06m
Waning Crescent, 22% of the Moon is Illuminated
Nov 28
Waning Crescent
Dec 2
New
Dec 9
First Quarter
Dec 17
Full
Dec 25
Last Quarter

Hourly Weather History & Observations

Time (CST) Temp. Windchill Dew Point Humidity Pressure Visibility Wind Dir Wind Speed Gust Speed Precip Events Conditions
12:15 AM 31.6 °F - 20.5 °F 63% 30.36 in 10.0 mi Calm Calm - N/A   Clear
12:35 AM 30.0 °F - 22.1 °F 72% 30.36 in 10.0 mi Calm Calm - N/A   Clear
12:55 AM 30.6 °F - 20.1 °F 65% 30.36 in 10.0 mi Calm Calm - N/A   Clear
1:15 AM 32.0 °F 28.7 °F 19.4 °F 60% 30.35 in 10.0 mi SE 3.5 mph - N/A   Clear
1:35 AM 31.1 °F - 19.9 °F 63% 30.35 in 10.0 mi Calm Calm - N/A   Clear
1:55 AM 29.3 °F - 21.2 °F 72% 30.36 in 10.0 mi Calm Calm - N/A   Clear
2:15 AM 30.2 °F - 20.8 °F 68% 30.36 in 10.0 mi Calm Calm - N/A   Clear
2:35 AM 28.4 °F - 22.8 °F 80% 30.36 in 10.0 mi Calm Calm - N/A   Clear
2:55 AM 28.9 °F - 24.6 °F 84% 30.36 in 10.0 mi Calm Calm - N/A   Clear
3:15 AM 29.3 °F 25.6 °F 22.3 °F 75% 30.36 in 10.0 mi ESE 3.5 mph - N/A   Clear
3:35 AM 29.3 °F - 22.6 °F 76% 30.36 in 10.0 mi Calm Calm - N/A   Clear
3:55 AM 28.4 °F 24.6 °F 22.8 °F 80% 30.36 in 10.0 mi ESE 3.5 mph - N/A   Clear
4:15 AM 28.6 °F 24.8 °F 23.7 °F 82% 30.36 in 10.0 mi East 3.5 mph - N/A   Clear
4:35 AM 27.5 °F 23.6 °F 23.5 °F 85% 30.36 in 10.0 mi East 3.5 mph - N/A   Clear
4:55 AM 28.2 °F 24.4 °F 23.2 °F 81% 30.36 in 10.0 mi East 3.5 mph - N/A   Clear
5:15 AM 28.4 °F 24.6 °F 23.0 °F 80% 30.37 in 10.0 mi ESE 3.5 mph - N/A   Clear
5:35 AM 28.6 °F 23.5 °F 23.4 °F 81% 30.38 in 10.0 mi ESE 4.6 mph - N/A   Clear
5:55 AM 29.1 °F - 23.5 °F 80% 30.38 in 10.0 mi Calm Calm - N/A   Clear
6:15 AM 29.1 °F - 23.7 °F 80% 30.39 in 10.0 mi Calm Calm - N/A   Clear
6:35 AM 28.8 °F - 23.9 °F 82% 30.39 in 10.0 mi Calm Calm - N/A   Clear
6:55 AM 28.4 °F 24.6 °F 23.9 °F 83% 30.39 in 10.0 mi ESE 3.5 mph - N/A   Clear
7:15 AM 27.7 °F - 23.7 °F 85% 30.41 in 10.0 mi Calm Calm - N/A   Clear
7:35 AM 28.0 °F - 23.7 °F 84% 30.41 in 10.0 mi Calm Calm - N/A   Clear
7:55 AM 29.3 °F - 24.8 °F 83% 30.41 in 10.0 mi Calm Calm - N/A   Clear
8:15 AM 30.7 °F - 26.1 °F 83% 30.43 in 10.0 mi Calm Calm - N/A   Clear
8:35 AM 32.4 °F - 27.3 °F 82% 30.42 in 10.0 mi Calm Calm - N/A   Clear
8:55 AM 34.0 °F - 27.9 °F 78% 30.43 in 10.0 mi Calm Calm - N/A   Clear
9:15 AM 36.7 °F - 29.8 °F 76% 30.44 in 10.0 mi Calm Calm - N/A   Clear
9:35 AM 38.3 °F - 31.1 °F 75% 30.44 in 7.0 mi Calm Calm - N/A   Clear
9:55 AM 42.3 °F - 32.2 °F 67% 30.44 in 7.0 mi Calm Calm - N/A   Clear
10:15 AM 44.4 °F 42.9 °F 28.8 °F 54% 30.44 in 10.0 mi SSW 3.5 mph - N/A   Clear
10:35 AM 45.9 °F 43.6 °F 27.0 °F 48% 30.44 in 10.0 mi SSW 4.6 mph - N/A   Clear
10:55 AM 47.5 °F - 27.0 °F 45% 30.44 in 10.0 mi SSW 6.9 mph - N/A   Clear
11:15 AM 48.7 °F - 26.2 °F 42% 30.43 in 10.0 mi SW 5.8 mph - N/A   Clear
11:35 AM 50.2 °F - 25.5 °F 38% 30.43 in 10.0 mi SW 4.6 mph - N/A   Clear
11:55 AM 51.3 °F - 26.4 °F 38% 30.42 in 10.0 mi SSW 5.8 mph - N/A   Clear
12:15 PM 50.0 °F - 25.0 °F 38% 30.41 in 10.0 mi South 5.8 mph - N/A   Clear
12:35 PM 52.2 °F - 25.7 °F 36% 30.41 in 10.0 mi SW 3.5 mph - N/A   Clear
12:55 PM 52.7 °F - 24.6 °F 34% 30.39 in 10.0 mi SSW 5.8 mph - N/A   Clear
1:15 PM 53.2 °F - 24.3 °F 32% 30.38 in 10.0 mi South 4.6 mph - N/A   Clear
1:35 PM 51.6 °F - 24.4 °F 35% 30.37 in 10.0 mi South 3.5 mph - N/A   Clear
1:55 PM 54.0 °F - 23.7 °F 31% 30.37 in 10.0 mi Calm Calm - N/A   Clear
2:15 PM 53.1 °F - 24.6 °F 33% 30.37 in 10.0 mi South 4.6 mph - N/A   Clear
2:35 PM 53.8 °F - 25.5 °F 34% 30.37 in 10.0 mi South 4.6 mph - N/A   Clear
2:55 PM 54.0 °F - 26.4 °F 35% 30.37 in 10.0 mi South 4.6 mph - N/A   Clear
3:15 PM 52.7 °F - 26.4 °F 36% 30.37 in 10.0 mi South 3.5 mph - N/A   Clear
3:35 PM 52.7 °F - 27.9 °F 38% 30.37 in 10.0 mi South 3.5 mph - N/A   Clear
3:55 PM 52.9 °F - 28.4 °F 39% 30.38 in 10.0 mi South 4.6 mph - N/A   Clear
4:15 PM 51.6 °F - 27.0 °F 38% 30.38 in 10.0 mi Calm Calm - N/A   Clear
4:35 PM 52.9 °F - 27.5 °F 38% 30.39 in 10.0 mi Calm Calm - N/A   Clear
4:55 PM 52.0 °F - 27.3 °F 39% 30.39 in 10.0 mi East 3.5 mph - N/A   Clear
5:15 PM 49.6 °F - 27.1 °F 42% 30.39 in 10.0 mi ESE 3.5 mph - N/A   Clear
5:35 PM 48.4 °F - 27.0 °F 43% 30.40 in 10.0 mi Calm Calm - N/A   Clear
5:55 PM 47.7 °F - 27.3 °F 45% 30.40 in 10.0 mi SE 3.5 mph - N/A   Clear
6:15 PM 46.8 °F - 27.7 °F 47% 30.41 in 10.0 mi SSE 3.5 mph - N/A   Clear
6:35 PM 45.5 °F 44.2 °F 28.2 °F 51% 30.42 in 10.0 mi SSE 3.5 mph - N/A   Clear
6:55 PM 45.3 °F 44.0 °F 28.4 °F 52% 30.43 in 10.0 mi SSE 3.5 mph - N/A   Clear
7:15 PM 44.4 °F 42.9 °F 28.4 °F 53% 30.43 in 10.0 mi South 3.5 mph - N/A   Clear
7:35 PM 44.2 °F 42.7 °F 28.2 °F 53% 30.43 in 10.0 mi SSE 3.5 mph - N/A   Clear
7:55 PM 44.1 °F - 28.0 °F 53% 30.43 in 10.0 mi Calm Calm - N/A   Clear
8:15 PM 42.4 °F 40.7 °F 28.4 °F 58% 30.44 in 10.0 mi South 3.5 mph - N/A   Clear
8:35 PM 41.5 °F - 28.4 °F 60% 30.45 in 10.0 mi Calm Calm - N/A   Clear
8:55 PM 42.4 °F 40.7 °F 28.2 °F 57% 30.44 in 10.0 mi SSE 3.5 mph - N/A   Clear
9:15 PM 40.6 °F - 28.4 °F 62% 30.45 in 10.0 mi Calm Calm - N/A   Clear
9:35 PM 41.9 °F - 28.4 °F 59% 30.45 in 10.0 mi Calm Calm - N/A   Clear
9:55 PM 37.8 °F - 28.4 °F 69% 30.46 in 10.0 mi Calm Calm - N/A   Clear
10:15 PM 39.4 °F 37.2 °F 28.4 °F 65% 30.46 in 10.0 mi NE 3.5 mph - N/A   Clear
10:35 PM 35.1 °F 31.0 °F 28.6 °F 77% 30.46 in 10.0 mi ENE 4.6 mph - N/A   Clear
10:55 PM 35.6 °F 31.7 °F 30.2 °F 81% 30.46 in 10.0 mi ENE 4.6 mph - N/A   Clear
11:15 PM 34.3 °F - 29.3 °F 82% 30.47 in 10.0 mi Calm Calm - N/A   Clear
11:35 PM 34.3 °F - 29.7 °F 83% 30.46 in 10.0 mi Calm Calm - N/A   Clear
11:55 PM 34.9 °F - 29.5 °F 81% 30.46 in 10.0 mi Calm Calm - N/A   Clear